Wind_Speed
4 4 4 4 4 4 3 3 4 4 5 5 6 6 6 6 6 6 6 7 7 7 7 9 9 10 11 12 13 14 16 17 16 10 9 11 9 6 8 7 4 4 7 6 7 6 5 6 6 6 4 3 2 2 3 2 1 1 1 2 4 4 5 3 4 4 3 5 5 3 4 4 4 2 1 2 2 5 9 11 9 8 9 13 19 17 11 11
5 5 5 5 5 5 5 5 5 5 5 5 6 6 7 7 7 7 7 7 7 7 7 8 9 10 10 11 13 14 17 18 15 12 14 15 13 9 7 5 4 4 7 8 8 8 6 5 7 7 3 1 3 3 3 2 3 2 2 3 4 4 5 5 7 7 4 5 7 7 7 6 6 5 1 2 6 6 8 11 9 9 10 13 18 19 15 13
5 5 5 5 5 5 4 5 5 5 5 6 6 6 7 7 7 8 8 8 8 8 8 9 9 10 10 11 11 12 16 15 10 8 6 7 8 6 4 2 3 4 6 7 7 9 7 5 3 6 3 2 3 3 2 2 3 4 3 3 5 5 6 6 7 7 5 5 7 7 6 6 6 6 3 4 8 7 9 10 9 11 10 9 9 9 14 16
6 6 6 6 5 5 4 5 5 5 5 5 6 6 6 7 8 8 8 8 8 8 8 9 9 9 9 9 9 10 12 8 4 1 5 5 5 3 1 1 1 4 8 6 5 8 8 7 3 4 3 3 4 3 3 3 2 3 4 4 5 5 7 7 9 9 6 4 4 6 7 7 7 6 5 5 6 7 9 9 9 11 11 10 10 8 7 9
7 6 6 6 6 6 5 5 5 5 5 5 6 6 6 7 8 8 9 9 9 9 9 9 10 9 8 8 7 8 8 3 1 3 7 5 4 3 2 2 1 6 9 4 4 6 6 6 5 3 3 3 4 3 4 6 4 2 4 7 7 6 7 8 9 6 4 4 3 6 7 7 6 6 6 5 7 8 8 8 10 13 13 12 11 10 11 9
7 6 6 6 6 6 5 5 5 5 5 6 7 7 7 8 8 9 10 10 10 10 10 10 10 9 7 7 5 4 3 2 1 4 8 4 2 1 3 2 1 8 9 4 5 5 5 6 5 3 3 4 5 5 5 7 6 5 5 6 7 7 8 9 9 2 3 3 6 7 6 6 8 9 8 7 10 11 10 10 12 15 15 15 13 10 11 11
6 6 6 6 5 6 5 5 4 5 6 6 7 8 8 9 10 11 11 11 11 11 11 11 10 9 7 4 3 1 2 5 5 5 9 6 4 3 3 2 3 9 8 6 8 6 4 5 5 4 4 4 6 7 7 6 5 6 6 5 8 9 11 10 9 4 1 6 7 6 6 7 9 10 9 9 12 13 12 12 14 15 16 16 13 10 11 11
6 6 6 6 5 5 4 4 4 5 6 7 8 8 9 10 11 12 12 13 13 13 13 12 10 9 6 2 1 2 3 6 6 5 7 7 6 5 4 3 6 10 8 9 9 6 4 5 6 4 5 6 6 7 6 6 5 8 7 6 7 8 9 8 7 7 6 8 7 5 8 10 11 9 12 14 14 15 14 13 14 15 14 13 12 12 11 10
7 6 6 5 4 4 3 4 4 5 6 7 8 8 9 10 11 12 13 13 14 14 13 12 11 7 3 1 2 4 4 6 7 5 5 7 6 5 4 3 7 10 7 9 10 8 4 4 5 2 4 5 6 7 6 5 4 5 6 5 6 7 8 9 9 10 9 8 6 6 9 11 9 7 12 15 14 14 13 13 14 13 12 11 11 11 9 9
7 6 5 5 3 2 3 3 4 5 6 7 8 9 10 10 11 12 13 13 14 14 13 12 10 6 1 1 2 4 3 4 5 4 5 6 3 3 4 2 5 9 7 8 9 9 5 5 4 3 4 5 5 6 5 6 4 4 6 7 8 9 10 10 12 14 12 10 10 9 10 11 8 4 8 12 11 11 10 11 11 9 10 10 9 9 8 9
7 6 4 4 2 2 3 4 4 5 6 7 8 9 10 11 12 12 13 14 14 14 14 11 8 4 2 2 4 4 2 3 3 2 3 2 0 4 6 4 5 9 8 9 9 8 6 6 6 3 2 2 4 7 5 5 5 5 7 8 10 10 11 13 14 15 11 8 10 9 8 10 6 5 12 15 13 11 9 11 11 9 9 9 10 9 8 8
6 4 3 2 2 3 4 4 5 6 7 8 9 10 11 11 12 13 13 13 13 13 12 10 5 3 3 3 7 8 6 4 4 3 3 1 2 5 8 7 6 8 7 7 5 4 5 6 7 2 3 3 4 6 3 4 5 4 4 6 12 11 12 15 14 14 12 7 6 4 1 6 7 10 16 16 13 12 11 11 11 10 9 9 9 8 7 7
4 2 1 1 2 3 4 5 6 8 9 10 11 11 12 13 13 13 12 12 12 12 10 7 3 6 3 2 7 14 15 12 9 7 5 3 3 5 8 9 8 8 6 3 3 4 3 4 4 4 5 5 5 4 1 1 3 4 4 5 9 9 8 11 11 10 10 4 8 7 1 5 7 12 14 11 9 9 10 10 9 9 9 9 8 7 7 8
3 2 1 1 2 3 4 6 7 9 11 11 12 12 13 13 12 11 11 11 10 9 8 4 6 7 2 4 4 10 14 13 9 6 5 2 2 3 5 7 7 8 6 2 2 3 3 4 3 3 5 5 5 5 4 3 3 5 7 5 5 5 4 8 8 3 3 1 7 7 3 5 6 11 10 7 4 5 7 8 9 10 10 11 9 7 7 7
3 2 2 2 3 5 5 7 8 10 11 12 12 14 14 11 10 10 9 9 7 5 2 4 9 6 2 5 4 5 8 6 4 4 4 5 4 3 4 5 5 5 5 3 2 2 3 2 1 2 4 5 4 5 6 4 3 5 5 4 4 4 4 8 7 5 5 3 3 6 2 6 8 8 7 7 7 7 9 10 11 13 13 12 9 7 6 6
2 2 2 3 4 5 6 8 9 10 12 12 13 15 13 9 9 9 7 6 3 3 5 4 8 6 4 2 4 4 4 3 7 7 5 7 6 3 7 6 3 4 3 2 2 1 0 1 1 0 2 4 3 4 4 4 4 4 4 5 5 5 5 6 3 4 7 2 3 6 4 5 6 6 7 9 11 10 10 12 14 15 14 12 8 6 6 4
3 3 3 4 5 5 7 8 9 11 12 12 13 14 10 7 7 6 5 3 4 6 5 1 5 5 3 1 3 3 4 4 7 6 4 8 7 6 8 5 4 5 4 3 3 3 3 3 2 1 2 4 3 3 3 3 4 3 4 5 5 6 6 5 3 1 3 3 4 8 7 7 7 8 9 10 11 10 10 13 15 13 10 9 8 6 5 6
5 5 5 5 6 6 7 8 9 11 12 11 13 13 9 7 5 3 3 4 5 4 2 1 2 3 2 3 2 3 5 5 6 4 4 8 8 8 7 4 5 6 5 3 3 4 3 2 2 1 3 4 4 3 4 5 6 5 5 5 5 6 6 7 6 6 5 5 7 7 8 9 8 7 8 10 11 10 11 13 12 11 10 9 7 4 6 10
6 6 7 7 7 8 8 9 9 11 12 10 13 14 9 6 5 2 2 1 1 0 2 1 5 2 3 2 3 5 6 6 6 4 5 8 8 8 5 3 5 5 3 2 3 5 3 2 2 2 3 5 6 7 8 9 9 9 9 7 7 7 6 8 9 7 9 9 8 8 9 9 7 7 10 12 12 12 13 11 9 11 11 7 4 6 9 11
7 7 8 8 8 9 10 10 9 11 11 10 13 12 6 2 3 1 3 5 6 7 6 3 7 6 7 2 5 5 4 5 4 3 7 8 8 7 5 3 4 2 3 3 4 4 3 3 3 4 6 8 10 10 11 11 10 11 9 8 8 7 7 8 9 9 7 7 6 6 8 9 9 10 12 15 13 12 12 9 9 10 6 3 7 8 11 11
7 8 8 8 9 10 11 12 10 10 10 9 12 8 2 3 2 1 1 5 10 13 11 9 10 10 11 3 7 6 2 3 4 4 8 9 8 7 5 5 4 2 6 5 3 2 2 3 5 7 10 12 11 10 10 10 10 9 7 7 6 6 8 8 10 11 5 2 4 6 8 8 9 13 16 16 12 10 11 10 8 4 4 6 8 10 11 9
8 10 10 9 9 10 11 11 11 11 8 6 9 5 3 4 1 1 2 5 8 12 12 13 13 12 13 4 7 5 2 2 4 5 8 8 5 4 5 5 5 4 5 5 4 2 2 5 10 12 12 11 11 10 10 10 9 7 6 6 6 6 7 8 9 7 2 1 4 7 9 8 10 16 17 15 11 9 9 4 3 6 9 7 8 10 9 9
10 11 10 9 9 10 10 8 10 10 6 5 6 4 3 2 2 1 1 3 6 10 9 10 11 10 9 3 6 3 1 5 5 5 10 10 4 2 4 5 5 4 4 6 5 4 4 5 10 11 10 10 10 8 8 8 6 4 4 4 5 6 6 5 4 5 6 4 7 9 8 6 11 15 14 13 10 8 2 8 11 10 10 10 10 10 9 11
11 12 10 9 10 10 7 7 9 7 3 3 3 2 2 2 1 0 2 3 5 6 3 2 3 3 3 1 3 1 3 4 3 4 10 8 3 2 3 5 5 5 5 8 8 7 7 7 5 4 6 7 7 6 6 5 4 4 5 5 7 7 7 5 4 7 7 6 6 6 6 5 8 9 7 6 5 3 5 13 12 9 10 10 11 12 11 11
14 14 13 11 10 8 7 8 7 4 4 2 1 1 3 1 0 1 1 3 4 2 2 2 1 1 1 2 2 1 2 2 1 3 5 2 1 2 2 3 4 5 6 9 10 8 7 6 3 2 3 3 3 5 6 4 3 5 5 6 7 6 6 5 6 6 4 4 2 3 4 4 4 5 6 5 6 3 7 12 10 9 9 8 10 10 10 10
15 14 13 12 9 6 6 5 2 3 4 2 2 3 4 2 0 1 0 2 4 1 1 1 1 2 2 2 2 0 1 1 2 2 4 1 2 1 1 1 2 3 3 4 4 3 3 0 3 1 2 2 3 5 6 4 3 4 3 3 4 3 4 4 5 3 1 4 3 1 3 5 4 5 7 10 8 0 9 10 9 8 8 8 8 8 8 8
15 14 13 11 7 6 4 1 0 3 2 1 2 3 4 3 1 1 1 3 4 2 3 0 1 1 3 2 1 1 1 2 2 1 2 0 1 1 1 2 1 2 1 2 1 1 2 3 4 2 1 2 3 5 5 5 4 3 2 3 5 4 4 4 3 2 4 4 5 5 5 5 5 5 10 12 5 7 10 9 8 7 7 8 8 8 8 8
17 17 15 13 10 9 7 3 3 2 1 3 1 4 4 2 1 1 1 3 2 2 2 0 1 1 1 1 1 1 1 3 2 1 2 1 1 2 1 3 2 1 3 3 2 1 1 4 4 4 4 3 5 5 3 5 4 2 0 2 4 3 3 3 3 4 4 4 5 5 6 3 5 5 8 8 6 9 8 8 7 7 8 9 9 8 7 7
19 18 17 15 13 12 12 9 6 3 1 1 2 4 3 2 1 1 1 2 1 2 1 1 2 2 2 2 2 2 2 1 0 1 1 1 2 0 1 2 4 3 3 5 5 3 0 2 3 4 5 4 5 3 2 0 3 1 1 1 2 3 4 4 4 3 4 3 5 6 6 3 4 5 5 1 6 6 6 7 6 6 7 8 8 8 7 6
17 15 15 14 12 11 10 10 10 8 6 5 5 3 2 1 0 1 3 3 0 1 1 1 1 3 5 4 3 3 3 1 2 3 2 1 1 1 1 1 2 3 2 3 6 6 1 2 1 2 5 4 3 2 3 2 1 1 2 2 4 5 4 3 3 1 2 3 5 7 8 7 3 5 2 3 3 8 8 6 6 7 7 7 7 7 6 6
13 12 12 12 12 11 7 5 9 12 11 9 5 1 1 1 1 4 5 2 1 0 2 2 1 3 5 3 2 3 2 2 4 4 2 1 2 1 2 0 1 2 2 3 5 5 2 1 1 2 4 2 4 2 1 2 3 2 1 2 4 4 1 1 0 1 1 4 4 5 1 6 3 4 2 4 2 10 11 9 10 9 8 7 6 6 6 6
11 11 11 13 13 12 9 5 5 9 11 8 3 1 1 2 3 5 2 1 1 2 2 2 2 3 3 1 2 2 1 2 3 3 2 3 3 3 4 3 2 0 2 2 2 2 2 5 5 1 2 1 3 1 2 2 3 4 2 0 2 3 1 1 1 1 3 4 3 1 3 0 4 5 8 9 4 4 6 9 11 11 10 8 6 6 6 5
11 10 10 13 13 11 10 7 4 6 9 7 4 1 1 4 5 3 4 2 1 1 2 3 1 1 1 1 2 2 1 1 4 3 1 2 2 4 6 7 5 2 2 0 2 3 2 2 4 3 1 2 5 3 1 1 2 4 4 3 3 1 2 3 3 2 3 3 3 1 2 3 4 5 6 4 4 8 9 9 10 10 11 9 7 7 6 6
9 9 9 12 13 12 11 9 4 5 10 9 4 1 2 5 3 1 5 6 1 2 2 3 2 1 1 2 2 3 1 1 3 3 1 2 2 3 5 8 7 4 1 1 1 2 2 3 3 4 1 5 7 5 2 2 4 5 3 4 3 2 3 4 3 3 4 4 4 2 2 2 2 1 2 8 9 9 10 10 10 10 9 8 7 7 6 5
8 8 8 9 11 12 12 10 5 7 10 7 3 2 5 4 1 1 4 4 1 2 2 2 2 2 1 3 4 4 3 2 2 3 2 3 3 3 3 3 5 4 3 1 1 2 4 4 3 2 2 6 6 4 1 3 1 2 1 3 1 3 3 3 3 4 4 5 6 4 4 3 2 6 3 8 10 9 10 10 10 9 8 7 7 6 5 5
5 6 7 8 9 11 12 11 7 9 9 4 3 5 6 3 1 2 1 1 0 3 2 1 1 2 3 3 4 4 3 2 2 2 2 4 3 4 4 1 4 6 5 3 2 1 3 4 2 2 1 3 2 1 1 2 1 1 2 2 3 2 3 1 4 5 4 5 6 4 5 5 4 7 4 8 11 8 8 8 9 8 7 7 6 5 5 5
3 3 4 7 10 11 13 11 9 10 6 3 5 7 4 3 4 4 1 1 1 2 3 2 2 3 3 2 3 5 3 1 2 2 1 2 2 3 4 0 1 4 4 2 2 2 1 3 2 3 2 1 2 3 2 1 2 2 1 2 2 1 1 1 3 3 4 5 5 5 8 7 4 4 1 8 9 8 7 8 8 7 7 7 5 5 5 4
2 0 3 9 13 15 15 12 11 10 4 2 8 8 2 3 5 4 2 3 0 1 2 4 3 4 4 3 2 4 5 1 3 4 1 2 2 1 3 0 4 3 2 3 1 1 1 1 3 2 0 1 2 1 1 2 2 3 2 1 2 0 1 2 1 1 4 6 4 5 8 8 5 4 3 2 7 9 8 7 8 7 6 6 4 4 3 1
3 1 2 7 12 17 17 15 11 7 3 3 8 7 2 2 5 5 2 1 1 2 4 5 4 3 4 4 3 2 6 5 4 4 2 2 3 1 3 1 2 3 5 4 2 1 2 0 2 2 3 2 1 1 1 3 2 3 2 2 1 2 3 2 2 2 5 6 5 5 7 6 3 3 6 6 5 8 7 6 6 5 5 5 4 4 3 2
3 0 1 4 10 18 20 15 8 5 3 4 5 3 1 1 5 7 6 4 3 2 3 5 5 5 5 4 4 2 5 6 5 3 2 2 1 1 4 3 2 2 3 4 1 1 1 1 2 1 2 2 1 2 3 3 1 2 2 1 1 1 1 2 2 3 4 5 5 6 7 4 1 4 6 8 8 7 7 7 5 4 4 4 4 4 3 3
2 1 1 6 13 20 19 10 5 4 3 3 3 2 2 3 3 4 4 5 4 1 0 3 5 5 5 5 5 4 4 4 5 4 2 2 3 0 2 3 2 2 1 2 1 0 1 0 2 2 2 2 3 3 2 3 2 1 2 3 4 3 2 3 5 4 4 4 4 6 8 4 0 2 4 6 5 6 7 7 5 4 4 4 5 5 5 4
2 2 3 9 18 22 16 6 5 4 3 4 2 2 3 3 3 3 3 3 3 2 0 1 5 5 5 5 4 3 3 3 4 3 2 2 2 0 0 1 2 3 2 1 1 1 2 2 1 4 5 6 8 7 5 6 7 6 4 2 1 1 2 3 5 3 2 3 1 3 6 2 1 2 2 5 5 6 7 8 7 6 6 6 6 5 5 4
3 2 3 10 20 20 10 4 6 5 4 4 2 3 4 3 3 4 4 3 3 4 3 2 5 6 5 4 4 4 3 2 3 4 3 3 1 3 3 2 3 3 2 1 1 2 3 2 1 3 4 6 9 7 3 3 4 4 2 2 3 1 1 3 3 1 1 3 2 4 5 2 2 4 1 3 5 6 6 7 7 6 6 6 6 6 5 4
3 2 2 8 18 17 8 5 7 7 7 5 5 7 6 5 5 5 6 6 5 4 4 4 5 6 5 3 2 4 5 3 3 3 2 3 1 4 4 4 4 2 2 1 1 0 0 1 2 1 3 4 6 5 2 4 4 1 0 1 1 1 4 3 3 2 2 4 5 5 5 2 2 3 3 3 5 5 4 5 6 6 5 5 5 5 4 4
3 2 2 6 15 13 6 3 4 5 8 9 10 11 9 7 8 8 8 7 5 4 4 3 2 3 4 2 1 2 4 2 1 1 0 0 1 3 4 6 5 3 2 2 1 0 1 1 2 2 3 4 5 5 1 1 3 1 2 3 3 4 6 5 2 4 5 4 4 5 6 6 3 4 6 3 3 4 4 5 6 5 4 4 4 3 3 3
3 3 1 3 7 8 5 3 3 3 5 8 8 9 11 9 7 8 9 7 7 8 5 1 0 1 3 4 3 2 4 3 2 1 1 1 2 1 2 4 6 4 3 3 2 2 1 1 3 5 6 6 7 6 4 3 3 4 6 8 8 7 6 4 4 6 5 4 5 8 10 10 10 11 11 5 1 3 7 7 7 4 3 4 4 2 1 0
2 3 4 4 4 6 6 5 6 4 3 5 5 5 10 11 7 6 7 6 6 8 5 3 3 3 4 5 5 4 6 6 5 5 4 3 2 2 2 3 5 2 3 3 1 2 2 2 5 6 7 7 8 8 8 7 6 6 8 10 11 9 7 6 8 7 4 5 8 10 10 11 12 12 12 11 10 11 10 7 6 5 5 4 4 2 0 2
3 2 2 4 4 6 7 8 10 9 8 6 4 3 7 10 9 7 6 3 2 4 4 4 7 9 8 6 4 4 5 6 5 5 5 4 3 3 3 3 3 3 3 2 1 2 3 3 5 4 6 8 8 8 8 7 7 7 8 11 12 12 12 11 10 8 5 7 10 10 12 14 13 13 14 13 11 8 5 1 3 5 5 5 4 2 2 4
2 2 2 2 1 4 6 8 10 11 11 8 5 5 7 8 9 6 4 4 2 3 4 5 6 8 7 4 3 4 4 3 2 1 2 2 2 3 2 1 2 2 1 2 0 1 2 3 4 2 4 7 8 8 6 5 6 8 10 12 13 15 15 12 12 12 11 12 13 14 17 17 15 13 10 5 3 3 3 4 5 5 5 4 3 3 4 5
1 1 1 1 1 0 1 5 8 9 9 8 7 7 5 6 8 3 3 2 4 4 5 6 4 4 4 3 3 3 1 4 3 1 3 3 1 1 1 1 1 1 2 2 1 2 1 2 1 2 2 7 7 5 3 3 7 10 13 16 17 17 16 14 14 13 12 13 14 15 16 15 9 3 1 3 3 3 4 4 4 3 4 3 0 2 4 5
2 2 2 2 1 2 1 2 6 7 7 8 7 7 6 6 8 3 2 1 1 2 2 5 6 5 5 4 2 2 3 6 5 3 4 4 1 1 1 0 3 3 1 1 0 1 1 1 1 1 2 7 8 5 4 5 8 11 16 20 19 16 14 13 12 10 11 13 13 12 12 9 3 3 4 3 4 5 5 4 4 3 3 3 2 5 5 4
1 3 3 2 2 3 3 2 4 6 6 7 7 7 6 5 6 4 1 1 3 3 2 6 8 5 4 4 2 3 5 7 5 4 4 3 2 1 1 1 3 3 3 2 1 1 1 1 0 1 3 6 7 4 1 1 5 10 13 14 14 14 13 13 11 11 13 12 10 9 7 5 4 4 3 3 4 5 4 3 2 2 2 1 2 5 5 4
Wind_Direction
324 313 307 305 303 299 294 294 295 297 299 293 291 292 293 294 296 302 306 309 312 316 320 319 320 324 327 331 332 331 326 321 318 298 254 268 281 286 291 280 274 226 199 165 151 175 175 199 204 182 184 151 194 200 131 166 166 183 199 210 240 241 252 302 319 322 344 332 330 316 324 333 321 289 118 14 274 254 272 270 270 261 244 243 245 245 225 208
305 299 298 296 295 295 293 294 296 299 302 298 292 290 290 292 296 296 300 303 306 311 313 314 316 320 326 330 333 333 324 320 311 280 262 270 264 264 289 284 257 206 187 175 177 199 200 208 191 179 201 171 175 149 140 171 158 203 226 228 239 243 271 313 310 312 334 323 318 317 320 329 326 323 12 297 278 277 280 277 285 283 265 255 246 231 207 201
309 306 303 295 293 292 288 290 294 299 297 298 298 296 294 294 298 298 302 303 306 312 313 313 314 319 327 330 335 334 325 321 307 283 269 257 236 237 277 288 250 206 184 181 193 218 242 283 198 177 220 234 196 150 157 166 155 209 215 238 246 253 280 297 298 303 311 313 309 303 325 333 315 315 301 274 282 277 273 275 283 283 276 282 281 238 205 203
310 308 307 302 301 300 297 295 297 299 296 302 306 303 300 300 304 304 304 305 308 312 313 313 314 322 328 334 339 336 328 315 303 6 112 139 168 164 114 2 274 182 174 182 223 236 254 293 255 198 240 254 234 186 184 177 157 202 193 227 253 280 296 299 303 309 316 340 331 306 320 314 297 291 276 275 280 264 257 260 266 277 283 296 318 312 263 229
310 307 306 304 304 304 304 306 308 307 311 319 314 311 310 310 311 306 306 308 310 311 314 314 316 324 331 340 339 335 335 315 31 115 140 138 150 141 49 17 324 171 169 190 249 241 241 260 250 232 242 256 263 233 214 198 182 238 232 242 257 277 284 281 291 312 357 355 317 293 297 300 300 286 270 259 257 254 256 266 274 281 288 291 298 307 301 288
313 311 306 304 306 307 306 311 316 315 321 322 316 318 314 312 310 307 309 309 310 312 312 313 315 324 335 348 348 344 333 271 337 175 185 200 214 300 356 357 250 173 169 213 235 223 230 238 231 231 237 242 255 249 247 218 194 230 244 250 260 268 274 278 288 313 72 313 283 280 292 301 297 284 274 252 248 255 257 264 271 272 275 281 284 286 284 280
314 315 310 311 316 316 317 320 322 318 318 319 319 319 314 313 312 309 310 309 311 310 311 313 313 320 332 355 12 1 256 263 291 234 209 230 260 296 306 291 223 181 177 223 222 211 219 227 225 230 248 248 252 249 258 256 233 244 248 259 274 278 277 278 288 289 254 276 273 278 292 286 277 281 282 264 257 263 264 263 266 270 271 274 275 269 267 265
309 315 314 315 322 325 330 328 325 321 318 322 320 320 320 317 314 310 309 309 309 308 309 310 309 316 328 3 340 292 238 256 283 245 222 252 277 283 270 247 206 183 191 222 218 224 227 234 243 249 260 253 263 272 287 299 273 260 263 269 271 271 277 284 291 285 271 271 267 262 269 265 264 278 282 273 269 266 265 266 265 268 270 269 268 263 259 256
305 315 315 310 313 318 334 333 332 330 326 327 325 323 320 314 312 308 307 307 305 305 304 304 307 311 323 47 321 288 248 254 264 250 256 278 282 263 242 230 201 185 205 232 232 246 238 242 257 285 301 281 285 295 308 302 267 266 283 302 304 298 301 305 297 284 274 268 258 245 254 260 264 279 277 268 265 265 260 261 261 263 266 262 262 261 257 254
308 312 311 315 320 323 346 348 344 342 335 332 328 325 320 315 314 309 307 305 301 301 298 299 301 292 276 143 246 257 252 260 258 253 277 289 284 223 188 200 210 195 219 241 237 249 251 267 295 31 350 313 302 297 291 272 276 334 325 319 312 303 294 283 276 273 268 264 256 247 254 261 259 261 272 267 262 264 262 261 261 258 262 263 265 264 260 258
311 315 313 326 341 1 8 1 355 353 345 339 332 327 323 318 315 310 307 303 300 300 297 298 294 268 196 193 232 240 236 249 244 255 288 296 136 174 172 176 211 205 229 248 240 256 282 317 1 31 321 351 323 294 286 292 320 359 347 321 296 287 281 271 265 263 260 254 241 231 250 269 270 239 253 265 268 269 272 275 273 265 262 261 265 266 263 259
311 318 325 342 3 13 8 360 360 357 350 344 337 331 324 319 315 309 305 301 299 297 295 297 282 205 175 221 234 234 237 244 250 269 286 264 183 187 185 187 196 207 241 268 262 296 324 360 21 332 280 345 322 295 291 336 346 350 347 307 285 281 272 266 261 254 251 241 196 161 251 268 257 244 248 254 261 264 260 262 264 262 261 258 263 272 272 266
304 312 339 12 13 9 1 359 0 355 351 346 340 334 327 322 317 311 307 302 299 295 294 290 221 163 172 254 232 231 236 242 252 272 276 262 227 206 208 207 193 201 229 285 355 11 357 5 6 295 294 300 297 310 257 310 325 291 269 261 280 289 271 266 263 244 243 224 125 114 216 241 246 255 259 258 257 265 260 260 263 261 266 271 277 285 284 282
296 315 342 18 13 4 356 0 358 353 350 345 341 335 330 325 319 316 311 304 299 292 286 243 169 146 179 259 235 222 228 238 248 263 264 224 173 192 216 219 205 209 220 255 335 355 356 8 6 299 291 268 273 318 311 284 276 266 264 247 255 277 274 275 275 192 184 214 121 125 233 246 262 269 276 286 280 280 276 275 276 271 273 276 280 282 278 280
294 325 337 5 10 356 352 359 357 351 348 344 340 336 332 328 321 321 315 308 306 292 262 170 164 152 271 260 227 204 211 224 197 190 210 162 160 181 170 185 202 211 218 230 260 317 354 25 60 280 274 249 246 289 295 282 265 256 268 268 232 240 265 277 277 163 166 266 145 134 217 242 247 268 303 323 308 296 288 282 278 275 275 278 285 288 279 282
302 344 356 13 5 356 0 1 355 349 346 343 338 335 332 325 325 328 326 319 320 128 124 142 170 175 299 260 165 173 190 189 179 196 214 174 171 153 137 145 165 177 190 202 222 247 196 152 160 298 275 257 231 238 268 280 269 240 236 256 251 250 262 276 293 174 170 152 183 191 226 246 242 271 296 296 284 278 275 274 271 270 275 282 289 290 290 319
336 347 353 5 4 10 10 1 356 349 345 342 335 335 329 319 329 345 2 35 106 113 102 73 180 190 271 219 165 177 159 163 184 203 214 179 171 150 145 147 149 153 148 139 156 172 163 160 159 118 220 243 247 254 274 266 256 246 235 249 258 267 284 297 327 313 165 139 220 225 229 246 248 261 270 269 270 268 263 265 265 268 275 277 283 298 321 36
336 338 337 354 11 16 6 357 355 348 345 341 335 336 327 303 305 346 34 77 105 102 30 336 200 208 228 195 198 138 130 153 169 170 178 173 166 160 168 162 144 152 151 152 174 168 168 171 165 207 233 227 233 231 233 238 247 270 272 277 284 286 300 297 294 314 311 273 263 258 251 260 265 275 284 279 278 274 263 264 273 282 281 280 299 355 44 63
325 329 329 344 3 4 357 351 351 351 347 341 340 337 323 286 271 260 229 214 139 209 310 184 193 251 317 228 155 108 112 140 150 147 163 164 161 167 189 185 155 169 165 153 194 179 166 144 148 222 236 226 225 215 222 237 249 264 271 275 281 283 286 285 280 285 292 283 278 278 277 288 298 295 287 278 272 266 264 268 278 282 282 299 10 57 73 72
306 316 321 331 345 346 347 347 348 354 347 343 346 334 313 290 277 240 213 230 236 258 288 245 213 256 298 288 123 118 129 154 157 150 161 157 153 162 185 193 164 202 224 171 173 169 154 172 187 203 222 236 238 234 241 247 254 265 272 272 274 281 280 282 285 284 292 291 283 291 293 299 303 291 278 272 269 269 272 270 265 273 294 41 75 80 80 79
289 295 302 308 324 330 336 342 344 350 347 342 341 326 343 22 318 357 317 255 241 248 263 261 248 261 276 258 133 138 121 193 194 146 163 164 157 166 177 186 165 199 229 196 133 81 127 200 218 216 226 240 248 257 268 272 278 284 288 288 288 284 279 282 284 284 299 306 291 307 297 294 296 285 275 273 276 273 266 260 262 286 50 76 88 85 80 76
274 280 286 294 311 319 323 334 338 342 346 336 328 326 60 32 341 69 317 282 264 257 257 259 255 257 265 248 134 136 72 234 204 138 166 170 167 195 172 176 189 202 214 178 114 91 183 229 234 228 232 244 255 264 272 275 279 286 293 297 292 280 283 285 276 285 350 30 309 309 297 294 287 277 274 275 273 263 259 269 37 68 75 66 70 77 73 66
266 276 280 288 300 307 310 322 330 335 343 341 338 357 51 1 346 45 256 277 281 260 248 249 248 247 249 198 113 122 210 235 232 170 174 170 166 222 179 183 212 228 209 172 171 197 197 229 234 230 233 243 254 259 266 273 268 259 266 275 275 275 284 277 280 336 357 320 293 293 289 284 276 272 271 272 261 251 259 73 71 74 78 72 68 66 61 60
260 267 272 280 283 292 297 304 315 317 306 320 347 13 20 325 298 120 233 269 271 254 246 273 271 268 259 121 103 176 217 226 243 169 174 179 171 176 201 207 215 239 228 204 213 224 235 258 256 230 234 244 260 273 271 276 278 260 245 246 259 267 270 275 321 345 333 304 293 301 294 257 260 273 280 280 264 252 87 86 81 76 79 78 73 66 60 58
256 261 267 273 273 283 290 289 292 268 253 257 214 326 349 341 205 142 256 269 250 259 359 28 59 61 40 77 112 202 232 209 47 105 155 194 210 144 212 225 214 237 237 230 232 234 250 271 275 211 232 251 264 271 262 247 274 275 251 247 260 276 286 304 340 350 339 306 293 9 336 255 257 303 308 290 275 286 87 95 91 81 76 70 71 71 67 61
254 257 258 259 262 268 272 277 239 213 253 244 211 304 329 335 28 135 10 281 248 230 85 142 140 167 155 136 154 163 284 206 59 89 130 41 311 188 262 206 190 245 250 256 257 254 246 189 61 92 219 233 239 262 260 228 249 266 256 290 304 326 331 329 346 359 321 274 258 350 315 265 257 278 272 264 261 95 87 87 82 77 72 68 69 68 70 66
247 247 244 244 241 225 231 301 146 219 248 169 232 294 325 324 309 186 225 278 262 160 114 225 325 164 144 132 193 174 188 159 119 105 125 331 278 114 248 181 154 226 203 39 15 268 205 133 72 62 176 200 217 254 243 189 193 244 256 359 0 1 342 326 330 271 248 276 277 245 233 260 273 247 247 247 215 103 94 84 78 83 80 76 70 62 66 67
240 236 233 232 227 216 221 269 299 264 122 104 252 298 332 331 282 286 271 276 282 119 122 96 92 114 105 109 240 259 119 147 144 72 40 306 230 111 216 238 272 237 155 141 179 234 151 149 155 159 165 197 213 241 242 179 185 220 80 28 15 1 315 298 280 259 270 304 288 231 190 237 276 250 251 235 143 109 116 116 110 114 101 94 86 71 62 58
232 232 231 231 227 223 229 242 256 260 166 108 303 309 337 334 282 357 250 254 332 87 96 99 123 140 125 143 213 216 155 171 234 74 95 238 225 200 225 245 305 301 188 180 207 248 123 152 183 164 172 209 214 240 348 95 196 202 12 6 331 273 255 263 257 266 300 290 265 237 186 195 288 276 271 139 119 135 141 127 120 113 100 97 94 86 74 57
227 230 230 224 217 217 224 231 234 236 241 257 284 309 336 333 287 194 209 225 341 76 115 123 122 150 170 181 187 190 188 145 98 123 165 188 140 278 272 135 346 312 262 235 249 256 199 88 26 197 212 209 144 104 38 60 139 116 359 349 315 270 230 230 239 240 326 268 257 249 199 179 278 285 269 51 131 160 146 133 130 109 87 78 78 79 75 65
216 215 212 202 197 197 195 209 228 230 236 248 261 287 302 323 206 211 215 215 9 112 139 136 110 158 193 199 147 183 200 133 137 157 182 158 137 210 267 165 37 339 313 302 275 260 195 150 228 225 239 190 105 79 21 64 75 70 35 359 334 303 197 107 308 106 221 251 272 310 215 171 232 283 314 338 228 165 155 153 147 126 104 88 75 67 61 56
198 197 197 194 188 186 182 175 202 217 224 229 214 150 174 200 218 218 201 86 164 201 156 121 154 177 194 164 128 163 157 140 173 192 192 168 170 194 205 202 164 143 262 247 287 288 210 207 203 176 298 179 119 57 1 30 70 102 130 86 346 321 336 323 293 187 223 241 233 344 20 254 244 275 283 287 283 135 129 136 135 125 115 105 90 82 69 58
192 192 194 195 191 188 190 183 165 182 191 183 160 133 182 208 219 194 172 193 233 150 95 74 83 144 124 131 142 122 73 158 171 188 216 160 196 215 205 211 202 191 242 231 15 322 291 249 182 152 331 179 156 154 178 272 154 155 165 159 168 274 300 267 260 260 252 263 246 197 3 300 259 272 276 295 31 61 76 94 106 107 107 103 96 90 77 68
192 194 196 197 197 199 201 198 179 152 159 154 134 140 213 225 243 135 194 214 188 62 72 74 81 68 65 214 190 146 158 243 155 154 190 155 194 229 214 218 207 174 145 88 349 228 244 309 182 174 207 164 175 200 190 109 156 189 188 143 157 208 244 257 267 274 275 284 285 286 308 276 229 243 118 95 76 68 75 80 85 88 93 96 93 84 74 65
198 209 213 206 205 208 205 207 200 157 157 148 118 190 215 223 213 126 215 229 149 88 42 24 102 128 229 216 198 174 166 211 170 148 197 194 205 227 218 209 184 147 99 133 237 190 212 250 182 159 196 158 178 235 183 76 119 219 88 93 148 204 211 263 275 262 280 294 283 265 256 253 257 272 245 110 92 82 83 85 88 87 84 84 81 73 69 58
203 225 234 227 223 218 210 211 197 169 169 151 142 212 226 220 187 167 188 290 211 123 106 326 135 165 239 219 198 195 154 168 185 141 201 208 223 231 223 183 158 166 156 161 228 210 216 238 141 91 258 164 166 315 89 89 116 82 77 153 231 199 150 254 278 263 263 270 266 254 264 279 294 287 287 97 96 94 93 90 88 85 79 73 68 62 54 47
203 236 246 236 230 218 211 212 193 176 180 177 194 217 220 201 232 241 138 63 334 95 116 203 187 176 216 223 203 192 147 120 181 160 204 203 228 230 208 241 74 164 167 147 243 231 219 260 214 190 235 265 327 5 29 8 102 120 201 213 247 338 87 209 259 269 254 252 257 259 275 289 291 284 25 111 121 115 103 98 92 84 79 74 69 63 49 37
147 100 259 244 228 210 203 203 188 176 173 213 221 231 222 184 228 241 140 112 200 103 145 211 203 174 194 219 226 168 138 151 174 159 195 218 222 158 155 175 24 46 39 57 104 267 32 294 269 261 189 251 286 35 25 330 58 124 202 135 105 173 280 243 199 213 245 256 259 248 264 276 267 278 328 122 141 124 110 107 101 93 92 90 90 98 101 112
113 84 279 248 218 201 192 187 182 178 174 210 225 233 230 224 250 262 259 142 184 170 184 219 216 205 221 229 251 157 150 181 190 164 172 199 214 130 94 67 40 40 16 42 117 314 42 162 277 359 68 74 356 74 151 282 346 68 48 12 123 176 212 226 230 240 243 259 269 254 256 267 281 340 7 29 84 106 104 96 89 90 104 114 133 148 165 185
136 51 285 206 191 187 179 174 182 192 189 206 224 228 203 246 253 254 242 216 218 203 202 220 218 229 248 248 260 243 176 193 211 207 200 175 194 51 48 33 83 98 11 24 86 10 29 221 250 311 63 57 322 205 190 232 268 82 58 322 254 221 253 275 268 244 237 257 268 265 257 250 337 10 29 44 52 72 88 91 87 91 111 137 164 173 191 199
171 289 232 179 178 172 162 165 200 192 193 231 244 227 224 241 244 241 223 207 227 282 45 229 234 240 250 250 248 234 214 224 222 219 225 204 214 273 20 359 41 100 29 37 78 356 346 281 269 283 292 263 238 243 305 341 333 162 169 209 230 228 231 268 262 236 230 247 243 255 261 243 136 355 59 76 72 85 104 117 130 156 172 186 193 189 196 201
223 227 170 165 171 164 155 177 207 175 207 228 211 208 221 237 251 239 219 199 227 254 15 250 251 250 243 248 252 232 231 240 212 208 222 209 225 225 104 323 36 64 67 99 95 26 66 91 261 267 265 264 269 280 298 300 284 256 230 217 255 238 181 228 257 261 264 273 268 251 254 223 182 250 120 116 128 132 143 150 155 182 196 191 194 198 202 207
227 193 134 159 172 168 163 201 197 193 223 200 176 222 216 216 239 230 213 187 196 219 210 208 229 237 240 244 251 243 237 220 201 209 216 215 230 45 41 18 43 51 36 82 105 37 63 89 200 253 269 283 285 280 279 305 289 260 276 28 50 11 303 229 234 266 261 253 271 261 250 234 246 257 209 134 138 142 164 169 167 189 198 189 191 191 195 203
217 167 109 171 185 188 197 208 195 206 218 206 217 228 219 220 222 210 202 194 187 200 208 206 214 224 229 218 221 236 236 233 223 218 222 223 149 65 26 17 58 59 6 25 204 257 24 139 137 225 293 305 299 291 327 19 20 56 321 344 48 317 302 273 229 242 234 225 240 256 258 253 207 216 221 180 152 157 183 188 188 195 191 187 187 180 181 186
204 162 100 176 194 206 226 229 209 218 215 216 227 226 222 226 217 205 207 204 194 198 209 213 221 229 218 167 112 250 240 236 236 212 225 251 104 65 16 21 55 76 62 51 25 165 215 209 144 171 243 255 270 273 241 52 16 7 277 293 299 289 289 293 278 266 261 258 271 272 271 281 278 260 264 247 147 170 204 212 218 211 178 167 168 170 177 177
202 187 157 155 193 218 247 276 269 254 217 210 221 223 219 226 222 203 205 214 215 213 215 220 250 289 234 194 171 228 228 206 187 189 157 143 120 68 22 43 54 78 115 85 33 61 108 244 210 207 228 240 252 267 287 324 310 291 290 292 286 279 277 274 257 259 278 310 291 265 267 283 290 286 291 313 351 262 262 248 230 202 155 141 141 150 149 216
234 215 186 160 180 210 227 241 233 234 237 218 215 214 214 222 227 200 194 210 215 210 212 214 204 215 221 208 204 216 222 212 200 205 211 187 131 113 157 105 72 95 137 110 58 102 116 241 228 215 232 245 255 272 292 304 290 279 284 282 278 278 272 253 248 260 295 301 271 265 276 283 282 286 296 303 300 294 287 259 208 167 149 137 128 135 152 294
246 282 202 181 189 198 207 218 215 217 235 241 238 239 223 219 218 207 192 191 208 217 212 201 206 214 215 212 208 209 218 220 215 213 210 191 126 116 152 112 104 173 170 102 83 107 118 245 251 246 257 261 266 274 280 286 287 285 278 275 277 275 265 257 259 263 260 260 267 279 283 279 278 285 290 298 307 313 316 317 118 116 126 131 131 166 236 257
238 290 285 265 241 202 196 199 200 210 226 234 242 248 242 230 223 211 166 156 183 222 219 209 204 204 202 192 192 207 210 200 208 218 130 107 82 109 148 108 115 170 128 93 162 103 115 241 251 250 270 271 267 271 282 291 290 286 276 272 271 269 268 269 271 267 258 259 267 274 273 272 277 284 288 312 7 39 64 66 74 90 114 131 153 209 245 257
271 312 292 315 326 171 166 185 187 201 220 225 229 236 238 241 237 213 105 161 196 191 208 215 183 129 108 120 166 208 168 118 126 128 105 100 76 98 164 225 138 72 44 75 295 306 256 245 250 103 286 277 265 262 274 274 272 275 273 268 263 265 269 268 266 266 265 263 262 262 266 270 276 293 49 72 67 70 70 71 82 100 109 105 143 274 274 280
277 324 297 307 271 175 119 183 186 191 213 217 223 227 215 227 239 228 61 38 155 137 182 168 138 104 90 107 144 158 110 110 127 137 112 116 141 99 36 123 120 111 96 119 5 308 241 265 346 92 254 269 272 280 275 263 268 266 262 260 259 261 264 261 261 263 264 267 269 268 268 267 247 126 106 83 55 57 49 43 51 45 59 69 347 294 289 296
230 277 251 269 285 187 161 179 188 193 213 214 216 224 220 229 240 228 205 61 60 30 38 129 132 125 121 134 140 111 102 103 109 102 88 94 99 89 107 135 142 149 162 165 142 169 174 149 299 233 250 262 271 286 315 283 277 265 255 251 250 252 254 256 260 258 255 259 266 264 255 230 205 185 134 90 52 46 35 23 21 340 331 2 281 276 286 311
Height
819 818 818 818 818 818 817 817 817 817 817 816 816 816 815 815 815 815 815 814 814 813 813 812 811 811 811 810 809 808 807 806 805 805 804 801 800 801 800 801 801 801 802 803 804 804 805 805 805 805 806 807 807 807 807 807 807 813 819 826 828 822 814 804 800 799 799 799 796 793 792 796 799 795 791 791 792 793 791 787 782 780 777 774 772 772 773 773
818 818 818 818 817 817 817 817 817 816 816 816 816 816 815 815 814 814 814 813 813 813 813 812 811 811 810 810 809 808 806 805 804 802 800 798 799 800 800 800 801 801 802 803 804 804 804 805 804 804 807 808 807 807 809 807 809 815 818 823 823 814 805 797 796 795 794 798 796 793 792 794 797 795 792 796 798 794 794 789 783 782 777 772 768 769 770 771
818 818 817 817 817 817 817 816 816 816 815 815 815 815 815 814 814 814 813 813 813 813 812 811 811 810 810 810 809 809 806 804 804 800 797 797 799 800 800 800 800 801 802 803 804 804 803 803 802 804 807 809 807 807 811 809 810 813 816 823 817 805 800 794 793 793 792 794 795 795 793 794 795 792 792 796 798 796 796 791 787 785 779 773 768 766 769 769
818 818 817 817 817 816 816 816 816 815 815 815 815 814 814 814 814 813 813 813 812 812 811 811 811 810 811 810 810 809 806 806 805 799 797 798 799 800 800 800 800 801 801 802 803 803 803 802 802 803 808 811 806 806 810 810 809 809 812 819 809 801 802 797 793 792 790 791 795 796 795 797 794 790 792 794 799 798 792 787 785 782 776 773 769 767 767 768
818 818 817 817 817 816 816 816 815 815 815 814 814 814 814 814 813 813 812 812 812 811 811 811 810 810 810 809 810 808 807 813 805 797 799 799 799 800 800 800 800 801 801 802 803 803 803 803 803 805 809 812 809 807 808 804 805 808 807 807 802 801 803 797 792 792 791 792 795 796 798 797 792 790 791 793 799 796 787 782 779 775 772 771 769 767 766 765
818 817 817 817 816 816 816 815 815 815 815 814 814 814 813 813 812 812 812 811 811 811 810 810 810 810 810 809 810 808 811 814 802 796 800 798 799 800 799 800 800 801 802 803 803 803 804 803 805 809 810 811 810 809 806 799 800 808 806 801 799 799 800 796 791 792 792 794 797 797 796 793 794 793 789 790 792 785 779 777 773 770 768 767 767 766 765 764
818 817 817 817 816 816 815 815 815 815 815 814 814 813 813 812 812 811 811 811 810 810 810 809 809 809 809 809 809 808 811 808 797 798 799 797 799 799 800 800 800 801 801 802 803 803 804 805 807 809 810 811 809 806 802 797 797 804 805 801 799 798 797 794 791 791 792 795 795 794 794 794 797 795 787 786 784 777 774 772 769 766 764 764 764 764 764 762
818 817 817 817 816 816 816 815 815 815 814 814 813 813 812 812 811 811 810 810 809 809 809 809 809 809 809 809 809 810 810 803 797 798 798 798 799 798 800 800 800 801 801 802 802 802 804 806 807 806 810 809 805 803 800 800 801 801 802 800 798 797 794 791 791 791 791 792 792 793 796 795 795 793 787 783 779 773 770 768 766 764 762 762 762 761 761 760
818 817 817 817 816 816 816 815 815 814 814 813 813 812 812 811 811 810 809 809 808 809 808 808 808 808 810 809 810 813 807 799 797 798 797 798 798 798 800 799 800 801 801 802 801 802 804 805 805 804 809 806 802 803 801 805 807 801 800 800 798 798 795 794 793 792 792 790 790 793 796 793 790 791 786 778 774 770 766 766 764 763 763 761 759 758 757 757
818 817 817 816 816 816 815 815 815 814 814 813 812 812 811 810 810 809 809 808 808 808 807 808 808 808 810 808 812 814 803 796 798 797 797 797 797 798 799 800 801 801 802 802 801 802 802 803 802 801 806 805 803 804 803 806 804 798 799 800 799 800 796 795 795 791 790 789 788 792 795 790 787 792 789 774 768 766 765 765 762 762 762 759 757 755 754 754
817 817 817 816 816 816 815 815 814 814 814 813 812 812 811 810 810 809 808 808 807 806 806 806 807 808 809 809 812 810 799 796 797 796 797 797 797 799 799 800 800 801 802 801 801 801 801 801 800 802 807 806 805 804 802 801 799 798 802 803 801 800 797 793 792 788 787 787 784 787 792 789 787 792 786 772 766 765 766 765 762 761 759 756 755 753 752 752
817 817 816 816 816 815 815 815 814 814 813 812 812 811 810 809 809 808 807 807 806 805 805 805 806 807 808 809 808 802 796 797 797 796 797 796 798 798 799 800 800 801 802 801 801 800 801 801 801 806 807 805 807 807 804 801 800 801 804 809 805 799 797 791 787 784 783 784 779 784 797 797 791 788 777 769 767 765 766 765 761 760 757 754 753 752 752 750
817 817 816 816 816 816 815 815 814 814 813 812 811 810 809 808 807 807 806 805 805 804 804 804 805 805 808 807 799 795 796 796 796 796 796 796 798 798 798 800 800 801 801 801 801 801 802 802 803 806 804 806 809 806 804 801 802 804 804 809 808 805 800 786 781 778 778 782 776 785 805 801 788 780 771 766 765 764 766 764 760 758 755 753 752 752 752 750
817 816 816 816 816 816 815 815 814 814 813 812 811 810 809 807 806 805 805 804 803 803 803 804 805 806 808 802 793 794 795 794 796 795 795 797 797 798 798 799 799 800 800 801 802 801 802 802 804 806 805 806 806 802 804 804 804 805 805 806 809 814 805 783 777 777 779 783 777 786 806 800 785 777 768 764 763 763 765 763 760 757 753 752 751 752 752 749
816 816 816 816 816 816 815 815 814 813 813 811 810 809 808 807 806 804 804 803 802 803 802 803 804 805 807 799 792 793 794 794 795 794 795 796 796 797 798 798 799 799 800 801 801 802 803 803 805 808 807 803 804 809 812 810 805 803 811 813 808 812 805 784 776 776 780 784 779 788 803 798 784 775 767 764 764 765 766 764 760 756 753 751 751 751 751 748
816 816 816 816 815 815 815 814 814 813 812 811 810 808 807 806 805 804 803 802 802 802 802 804 803 805 806 798 792 793 793 793 794 794 795 795 796 797 797 798 799 799 800 800 801 802 803 804 805 807 807 805 807 813 816 817 812 804 810 816 808 806 803 789 778 772 776 783 783 788 794 791 781 773 768 766 765 765 766 763 758 755 752 751 751 750 750 749
816 816 815 815 815 815 815 814 814 813 812 810 809 808 806 806 804 804 803 802 803 802 803 804 803 805 802 794 793 793 792 792 793 793 794 794 796 796 797 798 798 800 800 801 802 802 803 804 806 807 808 809 808 811 821 827 821 809 806 808 804 799 799 795 786 775 774 782 784 786 788 787 779 773 770 766 763 764 764 760 755 752 752 750 750 750 750 752
816 816 815 815 815 815 814 814 813 812 811 810 808 807 806 805 805 804 804 803 803 803 805 804 804 809 803 793 792 791 790 792 792 793 794 794 795 796 797 797 798 800 801 803 803 802 805 804 805 810 810 810 810 813 825 825 815 810 807 807 804 798 797 798 792 781 777 780 783 784 786 782 775 771 769 764 761 761 760 756 753 751 751 750 750 752 754 757
815 815 815 815 814 814 814 813 813 812 811 809 808 806 805 804 805 804 804 805 804 803 804 803 802 804 800 791 789 790 790 791 792 793 793 793 795 796 796 797 797 799 802 806 805 803 805 807 811 816 816 812 808 808 813 809 803 804 803 804 805 803 800 794 788 781 777 782 783 783 783 779 775 773 769 763 758 758 756 754 754 752 749 750 753 756 758 761
814 815 815 814 814 814 813 813 812 812 811 809 808 806 805 805 805 804 804 804 802 797 796 796 795 793 791 787 788 790 791 791 792 793 793 794 795 796 796 797 798 801 804 805 806 802 803 813 818 817 814 806 800 797 796 794 794 796 798 800 800 802 801 792 785 779 775 783 785 780 781 780 777 773 767 761 757 756 755 754 754 751 751 754 756 759 761 764
814 814 814 814 814 814 814 813 812 812 811 809 808 806 806 809 809 809 807 802 795 792 791 790 789 789 787 786 787 788 790 791 791 792 794 793 794 797 798 798 803 807 803 800 804 803 804 816 816 807 802 797 793 791 790 790 791 794 799 802 802 802 799 790 785 779 776 785 787 780 782 783 778 772 763 757 757 757 753 752 752 751 755 757 757 761 764 767
813 813 813 814 813 813 813 813 812 811 810 809 808 807 807 810 811 811 811 806 796 790 790 787 786 786 783 784 786 786 789 792 792 793 793 793 795 798 796 797 804 804 798 798 806 810 813 816 807 797 793 791 791 790 790 792 793 797 801 805 808 803 798 792 783 778 779 787 789 784 786 785 776 767 759 755 756 753 748 749 753 754 758 760 762 766 768 771
812 811 812 813 813 813 813 812 812 811 810 810 809 808 809 810 810 809 811 811 801 788 786 786 785 785 783 785 786 786 791 792 792 792 791 793 795 796 796 797 800 798 795 799 806 812 816 809 795 789 789 791 793 790 791 793 794 799 803 808 810 801 801 801 789 783 784 787 790 787 787 785 775 765 757 752 750 747 747 753 757 760 763 766 768 770 773 776
810 811 811 811 812 813 812 812 811 810 811 810 810 809 809 809 809 810 810 809 800 788 783 783 783 784 784 786 786 787 790 788 788 790 790 792 792 793 794 795 797 798 796 796 799 804 805 794 785 786 788 790 794 793 793 799 801 800 800 804 805 797 798 799 793 789 789 788 786 786 791 786 773 765 757 749 747 747 751 758 762 765 768 769 771 774 777 780
809 810 810 810 812 811 811 812 810 810 810 809 811 809 809 810 808 809 810 808 801 790 784 784 784 785 785 786 787 786 787 787 787 789 789 790 791 792 793 790 794 800 796 792 794 798 796 788 784 789 791 791 797 798 796 801 806 804 798 795 796 794 794 795 795 797 801 801 789 789 803 794 769 763 761 752 750 752 756 761 766 769 770 772 774 777 780 784
807 808 808 809 810 810 811 810 809 810 810 810 810 809 810 810 808 809 810 811 804 789 786 787 785 787 786 786 787 786 789 791 790 789 789 791 791 791 794 791 792 797 794 790 794 794 791 788 787 792 795 795 800 802 797 798 808 809 799 792 792 793 795 797 798 803 809 807 791 789 807 803 779 769 764 755 753 757 762 767 771 774 775 777 779 780 782 786
806 807 807 808 809 810 810 809 810 809 809 811 810 810 811 808 810 809 809 818 806 784 784 789 787 787 787 787 787 789 795 794 791 791 790 792 791 790 796 795 792 794 790 793 801 795 788 790 794 796 798 800 804 804 795 795 806 808 798 795 796 795 798 800 802 807 807 802 795 789 797 804 793 777 761 751 756 764 769 774 777 777 779 781 784 786 787 788
804 805 806 807 808 809 809 809 810 808 809 810 809 811 810 809 811 807 815 828 804 776 782 788 786 788 786 787 788 789 793 791 792 795 790 792 793 791 797 795 793 793 789 797 807 795 786 793 797 797 801 803 802 797 789 789 799 801 797 798 797 798 801 800 803 807 803 804 806 792 790 803 797 773 754 747 758 771 773 776 778 778 780 782 785 790 792 792
802 803 804 805 806 807 808 808 809 809 809 809 809 811 809 810 810 808 823 828 794 774 782 785 786 788 787 789 789 788 790 789 792 795 791 792 793 793 797 794 791 792 789 793 800 792 788 794 793 794 800 799 793 791 790 789 795 798 798 797 797 799 800 801 805 807 806 811 811 794 788 801 795 770 755 753 762 773 773 775 779 779 781 784 785 790 793 795
799 801 802 803 804 805 807 807 808 808 809 809 810 810 809 811 812 818 830 819 790 781 784 784 787 788 787 790 790 788 789 789 791 793 794 793 793 794 794 793 793 795 794 794 795 791 790 793 792 791 792 789 788 793 796 794 795 798 798 798 800 799 798 803 804 805 813 814 802 789 783 793 798 775 757 757 759 763 768 775 780 781 785 789 790 792 794 796
798 799 800 801 802 803 805 806 806 807 808 809 809 810 811 813 816 824 822 801 789 789 784 785 788 785 786 789 790 790 789 789 790 793 796 795 796 798 796 797 797 799 802 801 797 793 794 797 794 788 785 784 788 794 797 798 797 798 800 803 806 803 800 807 808 809 822 814 793 785 780 787 798 780 759 755 752 752 760 770 777 781 788 792 794 796 797 798
797 797 798 800 800 801 802 803 804 805 806 808 809 810 813 818 819 817 807 793 792 790 783 787 787 783 786 786 788 790 789 790 790 791 793 795 797 797 797 797 795 800 806 801 797 796 795 794 790 787 786 786 791 797 800 800 800 801 803 808 814 812 808 813 814 812 815 806 791 786 784 788 791 775 759 754 752 753 757 764 773 780 787 793 796 798 799 800
796 796 797 798 799 800 801 802 803 804 805 807 810 810 815 821 814 803 797 793 790 785 781 785 786 785 787 787 789 789 789 791 790 790 790 790 794 792 790 788 785 793 801 797 798 799 795 790 788 790 789 786 789 796 800 799 802 805 803 806 813 816 818 820 814 808 805 798 790 786 790 793 785 769 760 759 761 765 764 769 777 782 789 795 797 800 801 802
795 796 797 797 798 800 800 802 803 803 804 806 809 813 817 817 806 796 795 788 782 783 783 785 789 789 789 790 788 786 789 792 789 791 792 791 796 794 788 784 781 786 794 798 801 801 802 798 790 788 786 785 787 787 788 790 797 800 793 796 805 807 814 818 811 809 808 800 793 791 793 791 781 769 764 766 771 773 776 780 784 788 792 796 799 802 804 805
794 795 797 797 798 799 800 802 802 803 805 804 809 816 816 809 800 796 794 784 781 785 788 787 789 792 792 789 786 783 787 791 789 791 793 792 793 790 785 782 781 784 792 801 799 795 801 797 785 784 784 784 786 781 779 785 793 795 790 795 803 798 799 806 806 803 806 807 801 795 790 778 768 761 757 767 776 778 784 787 789 794 797 799 802 804 806 807
793 795 796 796 797 798 799 802 802 803 803 804 811 814 807 799 794 790 786 781 781 785 790 792 790 793 794 789 786 784 784 789 791 792 792 790 788 785 781 779 779 782 788 795 795 793 799 794 784 786 786 784 786 782 781 785 791 796 797 798 798 792 792 802 806 798 801 813 803 790 786 777 768 763 759 769 780 782 788 791 793 798 801 803 806 807 809 810
793 794 795 796 796 797 799 800 802 803 803 804 808 804 796 792 787 783 781 781 783 783 789 796 792 790 793 790 786 784 786 790 791 793 792 788 786 782 779 779 779 780 782 786 790 791 796 796 785 783 786 787 787 786 784 784 787 794 798 796 793 793 793 798 809 808 807 813 800 785 787 784 780 778 770 771 780 786 791 795 798 802 804 807 808 809 811 811
792 794 794 793 794 795 797 800 801 802 803 804 802 795 792 789 782 780 781 781 783 784 789 795 790 784 787 789 785 783 790 792 790 795 794 788 785 779 777 782 784 783 781 782 789 789 792 799 791 781 786 789 786 788 790 787 787 790 793 793 794 802 803 799 809 816 813 812 802 789 787 783 781 779 772 771 779 788 794 797 800 804 805 808 809 809 810 809
793 795 793 789 790 793 795 798 800 801 804 804 802 796 792 790 784 781 781 781 782 786 790 791 787 783 783 785 784 782 789 791 788 792 793 788 786 779 776 782 787 788 783 783 790 791 791 802 801 787 785 788 787 791 795 793 790 792 795 794 793 799 804 800 802 804 805 808 803 796 792 782 778 781 780 780 782 788 796 800 803 805 804 806 807 808 808 808
794 795 792 787 789 792 794 798 799 800 802 801 798 795 792 789 785 780 780 782 782 784 787 786 785 786 783 782 782 782 785 787 785 788 788 784 783 783 782 784 787 790 788 786 791 793 793 802 804 794 788 792 794 790 791 791 791 794 798 799 797 797 798 799 798 794 798 806 804 802 797 784 783 790 791 791 793 794 799 803 806 807 805 806 807 807 808 808
795 796 791 787 789 791 793 799 798 797 799 797 794 794 791 787 784 780 779 781 782 782 784 784 784 785 784 783 782 781 782 784 783 785 786 783 782 787 791 789 788 789 790 790 793 795 798 801 804 801 796 797 794 784 783 787 789 793 797 797 797 797 798 806 806 794 792 798 799 802 798 785 789 797 792 794 799 799 801 804 805 807 807 806 806 806 807 807
796 795 789 787 790 790 792 795 793 792 795 794 791 791 788 785 784 783 781 781 784 784 784 785 785 784 784 783 781 780 782 784 784 785 787 785 783 787 792 791 789 789 791 795 796 797 799 802 806 806 800 796 791 783 783 786 785 787 791 791 792 794 800 811 813 803 799 799 798 804 802 789 792 798 792 793 796 796 800 799 798 803 804 804 805 805 806 806
794 791 788 788 789 789 791 793 790 790 790 787 785 786 785 784 784 783 782 784 786 785 785 786 784 784 783 782 782 782 783 786 785 785 787 786 787 793 794 790 790 791 792 796 798 799 800 804 810 810 800 792 787 783 784 787 787 790 794 795 799 802 805 810 811 811 815 810 803 807 801 788 791 797 793 792 793 795 799 796 795 799 800 800 803 803 805 806
788 787 788 789 789 789 789 786 784 787 786 783 784 784 782 781 781 781 782 783 783 783 785 784 782 782 782 782 783 783 784 788 788 786 786 787 791 799 798 792 792 795 797 799 800 802 805 807 813 816 811 805 798 790 790 793 796 801 804 803 805 806 808 810 808 811 816 808 802 809 802 785 788 797 795 794 794 794 796 795 794 796 796 799 801 802 804 805
784 785 787 787 788 788 784 777 777 779 780 781 783 781 780 778 776 776 778 779 779 780 782 782 780 780 781 782 787 785 784 788 790 789 789 789 794 801 800 796 795 797 802 804 800 802 807 806 809 817 821 820 813 802 798 802 804 806 805 803 804 804 805 808 811 816 815 804 801 809 803 787 786 791 790 789 792 793 794 794 793 794 795 798 800 802 803 804
781 782 785 787 788 787 783 778 779 779 775 777 779 776 776 776 772 771 774 776 776 776 779 780 780 782 782 784 789 790 786 787 790 791 791 792 796 801 802 800 800 802 805 805 801 803 809 808 807 811 815 814 810 802 799 805 810 810 807 805 804 804 805 808 814 817 813 810 809 806 798 794 791 787 786 787 790 793 792 791 792 794 796 799 801 803 803 803
780 775 775 781 784 784 783 781 781 780 774 773 773 770 770 773 771 771 772 773 773 774 778 780 782 786 786 784 788 791 787 786 789 791 792 792 796 802 804 802 803 806 805 804 803 804 811 814 808 808 811 808 806 804 802 805 809 810 809 807 804 804 805 810 814 811 809 814 814 800 794 800 797 789 789 789 788 788 786 785 789 794 797 800 802 803 803 804
779 772 767 769 774 776 777 776 776 777 775 772 769 767 767 769 770 771 773 774 773 773 777 781 782 784 784 783 787 789 786 786 788 788 790 792 797 803 805 803 805 807 804 805 805 804 812 816 808 808 812 808 805 807 805 806 809 808 808 808 805 805 805 808 810 808 808 813 810 799 798 801 796 790 789 788 787 788 788 788 791 795 798 800 802 802 803 803
776 774 769 767 768 768 767 768 771 776 776 774 772 768 767 767 766 766 769 774 777 775 776 780 780 780 781 782 786 787 786 788 790 790 794 799 801 804 806 806 807 807 806 807 805 805 813 816 809 810 815 811 809 810 808 810 812 811 810 808 805 803 803 806 807 804 805 807 803 799 800 797 791 789 789 791 792 792 793 794 795 797 798 799 801 801 801 801
775 776 773 769 769 767 766 766 769 774 775 774 774 771 768 769 767 766 769 775 778 776 774 778 780 782 784 785 787 788 789 793 795 795 800 805 804 804 807 807 806 808 809 810 808 808 814 816 809 811 818 816 811 811 812 814 815 814 812 807 803 804 804 804 804 802 803 803 798 798 800 795 789 790 793 795 795 793 795 796 796 797 799 799 800 800 799 799
777 777 776 775 771 768 769 768 767 772 773 772 772 770 769 771 767 767 773 777 777 776 775 778 783 787 790 789 790 791 793 797 800 799 802 805 804 805 807 806 807 810 813 813 812 812 816 817 811 813 824 820 810 813 816 813 815 818 813 804 802 805 804 801 800 799 800 799 797 799 800 795 791 793 795 796 795 796 797 797 798 799 799 799 800 799 799 799
777 777 776 777 773 766 768 769 767 770 769 766 767 767 768 770 767 769 777 781 781 781 779 779 783 788 791 793 794 795 795 797 800 801 803 804 805 805 807 807 808 811 813 813 814 813 815 819 817 818 826 822 813 815 817 818 826 824 806 798 800 801 800 799 797 796 794 794 797 799 796 792 791 793 796 798 799 799 800 800 800 800 799 799 800 799 799 799